Regional Weather Roundup
Issued by NWS Austin/San Antonio, TX

Home | Current Version | Previous Version | Text Only | Print | Product List | Glossary On
Versions: 1 2 3 4 5 6 7 8 9 10 11 12 13 14 15 16 17 18 19 20 21 22 23 24 25 26 27 28 29 30 31 32 33 34 35 36 37 38 39 40 41 42 43 44 45 46 47 48 49 50
000
ASUS44 KEWX 201010
RWREWX
SOUTH TEXAS REGIONAL WEATHER ROUNDUP
NATIONAL WEATHER SERVICE AUSTIN/SAN ANTONIO TX
400 AM CST MON NOV 20 2017

NOTE: "FAIR" INDICATED FEW OR NO CLOUDS BELOW 12,000 FEET WITH NO
SIGNIFICANT WEATHER AND/OR OBSTRUCTIONS TO VISIBILITY.

* - THESE STATIONS ARE NOT NWS OR FAA STATIONS...AND ARE NOT SUBJECT
    TO NWS AND FAA QUALITY CONTROL.

TXZ171-172-183>190-201100-
TEXAS HILL COUNTRY AND EDWARDS PLATEAU

CITY           SKY/WX    TMP DP  RH WIND       PRES   REMARKS
JUNCTION       CLOUDY    34  28  79 CALM      30.17F
*LLANO         PTCLDY    32  30  93 CALM      30.23S
BURNET         PTCLDY    40  30  67 CALM      30.20F
*HORSESHOE BAY PTCLDY    34  32  91 CALM      30.19F
*KERRVILLE     PTCLDY    36  34  92 CALM      30.19S
*FREDERICKSBRG PTCLDY    34  31  88 CALM      30.19S
*ROCKSPRINGS   NOT AVBL
*BOERNE STAGE  PTCLDY    36  32  87 CALM      30.20S
*CASTROVILLE   PTCLDY    42  33  72 CALM      30.21S
HONDO          PTCLDY    42  30  62 N5        30.19S WCI  39
*UVALDE        PTCLDY    44  32  63 NE6       30.19F WCI  40
DEL RIO        PTCLDY    43  32  65 E5        30.16S WCI  40
LAUGHLIN AFB   MOCLDY    40  33  74 E5        30.16F WCI  37
CARRIZO SPRGS  CLEAR     39  36  87 CALM      30.17S
*EAGLE PASS    SUNNY     43  34  70 NE5       30.17S WCI  40
$$

TXZ173-191>194-202-209-217>225-228-201100-
CENTRAL AND SOUTH CENTRAL TEXAS

CITY           SKY/WX    TMP DP  RH WIND       PRES   REMARKS
GEORGETOWN     PTCLDY    37  34  89 SW3       30.22S
AUSTIN/BERGSTM MOCLDY    40  37  89 CALM      30.20S
AUSTIN/MABRY   PTCLDY    43  35  73 CALM      30.20F
*AUSTIN/EXEC   PTCLDY    45  32  61 CALM      30.20F
*LAGO VISTA    PTCLDY    47  32  56 SE3       30.19F
SAN MARCOS     CLOUDY    41  34  76 NW3       30.21S
NEW BRAUNFELS  PTCLDY    40  33  76 N3        30.18S
RANDOLPH AFB   MOCLDY    43  35  75 N5        30.19S WCI  40
PT SAN ANTONIO PTCLDY    43  38  83 CALM      30.17S
SAN ANTONIO    CLOUDY    45  36  70 NW3       30.19F
STINSON FIELD  PTCLDY    46  37  71 CALM      30.18R
*LA GRANGE     CLOUDY    41  40  95 CALM      30.19S
*GIDDINGS      CLOUDY    40  36  86 CALM      30.21S
*GONZALES      CLOUDY    44  34  69 CALM      30.19F
$$

TXZ163>164-176>182-195>201-210>213-226-227-235-201100-
SOUTHEAST TEXAS

CITY           SKY/WX    TMP DP  RH WIND       PRES   REMARKS
COLLEGE STN    CLOUDY    44  35  70 E3        30.21F
*BRYAN         CLOUDY    38  36  91 CALM      30.22F
*CALDWELL      CLOUDY    39  35  85 CALM      30.21S
*CROCKETT        N/A    N/A N/A N/A MISG        N/A
*BRENHAM       CLOUDY    40  38  94 CALM      30.21F
HUNTSVILLE     CLOUDY    41  37  86 CALM      30.21F
CONROE         CLOUDY    38  38 100 NW3       30.22S
HOUSTON BUSH   MOCLDY    43  40  89 CALM      30.22R
HOUSTON HOBBY  MOCLDY    47  38  71 CALM      30.21R
*HOUSTON SW AP PTCLDY    42  40  93 CALM      30.22S
PEARLAND       PTCLDY    46  41  82 N3        30.22S
HOUSTON HOOKS  PTCLDY    42  41  96 CALM      30.22S
ELLINGTON FLD  NOT AVBL
SUGAR LAND     PTCLDY    46  42  86 N5        30.21R WCI  44
*HOUSTON EXEC  PTCLDY    41  37  87 NE3       30.22F
*CLEVELAND MUN PTCLDY    39  38  95 CALM      30.23S
*WHARTON       CLOUDY    45  38  78 CALM      30.22R
*COLUMBUS      FAIR      39  37  93 CALM      30.21F
*EAGLE LAKE    CLOUDY    43  38  84 CALM      30.21R
$$

TXZ214>216-236>238-201100-
THE UPPER TEXAS COAST

CITY           SKY/WX    TMP DP  RH WIND       PRES   REMARKS
*ORANGE        CLOUDY    39  39 100 CALM      30.24S
PORT ARTHUR    CLOUDY    47  37  68 NE7       30.21F WCI  44
GALVESTON      PTCLDY    57  40  52 NE9       30.20F
ANGLETON       CLOUDY    47  40  76 N5        30.20F WCI  45
*BAY CITY      CLOUDY    49  41  72 CALM      30.21R
PALACIOS       CLOUDY    46  41  82 NE6       30.20S WCI  43
$$

TXZ229>234-239>247-201100-
TEXAS COASTAL BEND AND RIO GRANDE PLAINS

CITY           SKY/WX    TMP DP  RH WIND       PRES   REMARKS
VICTORIA       CLOUDY    42  37  82 NE8       30.19F WCI  37
*BEEVILLE      CLOUDY    48  38  67 NE5       30.18S WCI  46
ROCKPORT       PTCLDY    54  45  71 NE7       30.17F
*PORT ARANSAS  NOT AVBL
*PORT LAVACA   CLOUDY    51  41  70 NE7       30.19F
*INGLESIDE     NOT AVBL
CORPUS CHRISTI MOCLDY    49  41  74 N6        30.17F WCI  46
CORPUS NAS     PTCLDY    62  45  53 NE13      30.16F
*ROBSTOWN      PTCLDY    47  40  76 N5        30.18S WCI  45
ALICE          CLEAR     47  38  71 NW5       30.18S WCI  45
KINGSVILLE NAS PTCLDY    45  41  86 NW6       30.18S WCI  42
COTULLA        CLEAR     47  34  60 E3        30.19S
*FAITH RANCH   MOCLDY    48  37  66 SE6       30.17S WCI  46
LAREDO         CLEAR     50  39  66 CALM      30.18F
$$

TXZ248>255-201100-
DEEP SOUTH TEXAS

CITY           SKY/WX    TMP DP  RH WIND       PRES   REMARKS
BROWNSVILLE    CLOUDY    61  48  62 N6        30.14F
PORT ISABEL    MOCLDY    58  47  66 N8        30.13F
*SOUTH PADRE   NOT AVBL
HARLINGEN      CLOUDY    56  47  71 N6        30.13F
*HEBBRONVILLE  CLEAR     45  39  80 CALM      30.18S
MCALLEN        PTCLDY    57  45  64 N6        30.15F
*WESLACO       CLOUDY    51  46  83 CALM      30.14F
FALFURRIAS     NOT AVBL
EDINBURG       MOCLDY    51  47  84 E3        30.16F
*ZAPATA        CLEAR     48  37  66 CALM      30.16F
$$

TXZ213>215-236>238-242>244-246-247-251-254-255-201100-
CMAN STATIONS

STATION/POSITION TIME  TEMP    WIND        PRES    WAVE
                       AIR SEA DIR/SP/G            HT/PER
                 (UTC) (F)     (DEG/KT/KT) (MB)    (FT/S)
SABINE PASS      0942   51 69   40/  6/  8 1024.6
SEA RIM ST PARK  1000   49      60/  7/  8 1023.3
NORTH JETTY/GLS  0942      67   40/ 15/ 17 1021.9
EAGLE POINT      0942   58 63   90/ 11/ 13 1022.9
MORGANS POINT    0942   53 69   60/  7/  9 1022.9
PORT O`CONNOR    0942   61 65   50/ 12/ 13 1021.6
PORT ARANSAS     1000   60 71  360/ 13/ 14 1021.1
MALAQUITE BEACH  0942   61 70  350/ 10/ 12 1020.9
BAFFIN BAY       0942   54 66  310/  9/ 11 1021.6
PORT ISABEL      0948   63 73  330/  5/  8 1019.8
$$




USA.gov is the U.S. government's official web portal to all federal, state and local government web resources and services.